Location: Caualo
(45.5667°N, 10.8667°E)
Time: 15:36:17
(UTC+00:00)

Cosmos 2322 Rocket - Pass Details

Date: 07 June 2020
Orbit: 833 x 850 km, 71.0° (Epoch: 11 July)

Event Time Altitude Azimuth Distance (km) Brightness Sun altitude
Exits shadow 01:29:26 23° 201° (SSW) 1,723 3.2 -15.2°
Maximum altitude 01:33:06 84° 115° (ESE) 844 2.2 -14.8°
Drops below altitude 10° 01:38:44 10° 27° (NNE) 2,452 6.0 -14.3°
Sets 01:41:11 0° 27° (NNE) 3,390 7.2 -14.1°
